Location: Muenchen
(48.1800°N, 11.5800°E)
Time: 20:35:37
(UTC+02:00)

Cosmos 1455 - Visible Passes

Search period start: 21 May 2018 00:00
Search period end: 31 May 2018 00:00
Orbit: 501 x 525 km, 82.5° (Epoch: 21 May)

Date Brightness Start Highest point End Pass type
(mag) Time Alt. Az. Time Alt. Az. Time Alt. Az.
21 May 2.1 04:20:18 10° NNW 04:24:07 79° W 04:27:52 10° S visible
22 May 2.2 04:04:30 10° N 04:08:18 83° E 04:12:04 10° S visible
23 May 2.5 03:48:42 10° N 03:52:29 67° E 03:56:13 10° SSE visible
24 May 2.9 03:32:55 10° N 03:36:40 53° ENE 03:40:20 10° SSE visible
25 May 3.3 03:17:11 10° N 03:20:49 43° ENE 03:24:25 10° SSE visible
26 May 3.6 03:01:28 10° N 03:04:58 35° ENE 03:08:26 10° SE visible
26 May 3.8 04:37:42 10° NW 04:40:22 19° W 04:43:01 10° SW visible
27 May 3.9 02:45:46 10° N 02:49:06 29° ENE 02:52:24 10° SE visible
27 May 3.5 04:21:39 10° NW 04:24:38 22° W 04:27:33 10° SW visible
28 May 4.2 02:30:05 10° NNE 02:33:14 24° ENE 02:36:19 10° SE visible
28 May 3.3 04:05:39 10° NNW 04:08:53 27° W 04:11:29 13° SW visible
29 May 4.5 02:14:28 10° NNE 02:17:20 20° ENE 02:20:11 10° ESE visible
29 May 3.0 03:49:41 10° NNW 03:53:06 33° W 03:55:26 17° SSW visible
30 May 4.7 01:58:55 10° NNE 02:01:27 17° ENE 02:03:57 10° ESE visible
30 May 2.7 03:33:46 10° NNW 03:37:19 40° W 03:39:26 21° SSW visible
